Date,TemperatureHighF,TemperatureAvgF,TemperatureLowF,DewpointHighF,DewpointAvgF,DewpointLowF,HumidityHigh,HumidityAvg,HumidityLow,PressureMaxIn,PressureMinIn,WindSpeedMaxMPH,WindSpeedAvgMPH,GustSpeedMaxMPH,PrecipitationSumIn
2013-1-1,29,19,11,18,11,8,90,74,45,30.15,30.00,9,0,10,0.00
2013-1-2,30,20,-2,18,9,-18,92,64,38,30.30,24.94,16,0,127,21.60
2013-1-3,34,21,11,10,6,1,74,53,24,30.30,28.98,11,0,12,2.06
2013-1-4,44,26,14,14,8,2,73,49,22,30.20,30.01,8,0,8,0.00
2013-1-5,37,25,16,17,14,10,78,64,38,30.29,30.06,15,1,15,0.00
2013-1-6,45,27,13,19,11,3,76,55,18,30.27,29.93,8,0,8,0.00
2013-1-7,47,34,24,18,14,9,68,48,22,30.02,29.81,10,0,11,0.00
2013-1-8,50,37,25,20,16,12,65,45,26,30.22,29.78,14,0,15,0.00
2013-1-9,55,31,22,22,18,-26,81,63,20,30.32,29.48,16,1,16,0.96
2013-1-10,42,34,24,23,19,13,74,55,37,30.00,28.10,16,1,16,0.00
2013-1-11,41,27,13,28,19,10,92,73,40,29.74,28.63,19,2,20,1.09
2013-1-12,17,9,4,11,5,1,92,84,68,29.98,29.74,14,1,15,2.30
2013-1-13,15,8,1,7,3,-2,87,80,66,30.09,29.95,10,0,10,0.01
2013-1-14,14,8,2,9,4,-1,90,83,72,30.12,30.00,10,0,10,0.18
2013-1-15,30,18,-1,17,7,-4,86,65,42,30.12,30.02,8,0,8,0.01
2013-1-16,47,33,21,24,19,14,78,59,35,30.38,30.12,10,0,10,5.98
2013-1-17,39,24,19,22,18,16,86,78,47,30.47,30.38,6,0,6,1.19
2013-1-18,54,44,30,10,6,0,40,23,11,30.12,30.07,16,2,17,5.21
2013-1-19,55,38,25,14,7,-4,50,31,9,30.27,30.09,12,0,12,0.00
2013-1-20,46,32,22,19,14,10,78,51,24,30.27,30.12,17,0,18,0.01
2013-1-21,56,36,17,22,11,-5,87,47,10,30.23,30.06,18,1,18,0.00
2013-1-22,63,44,28,9,-2,-42,42,19,1,30.18,30.02,25,2,26,0.00
2013-1-23,56,41,32,17,8,-1,39,27,10,30.21,30.11,7,0,8,0.00
2013-1-24,66,48,30,27,18,7,56,34,10,30.15,29.94,25,2,25,0.00
2013-1-25,59,46,36,28,26,24,68,48,29,30.18,30.05,10,0,11,0.00
2013-1-31,48,41,29,25,22,16,74,48,27,30.13,30.05,21,1,21,0.00
2013-2-1,50,37,26,25,22,17,81,57,27,30.21,30.02,25,2,28,0.00
2013-2-2,58,39,26,24,18,1,81,50,11,30.34,30.20,24,1,24,0.00
2013-2-3,52,38,26,22,18,2,76,47,13,30.26,29.88,14,0,18,0.01
2013-2-4,55,40,27,18,13,3,60,38,14,29.99,29.84,22,0,22,0.00
2013-2-5,34,32,29,19,18,17,64,56,49,30.00,29.93,8,0,9,0.00
2013-2-8,51,51,51,20,20,20,29,29,29,29.72,29.71,0,0,0,0.00
2013-2-9,38,34,27,32,28,23,91,81,60,29.61,29.50,14,2,14,0.00
2013-2-10,36,29,23,23,17,10,90,64,34,30.04,29.56,20,1,20,0.00
2013-2-11,33,24,17,19,16,13,86,71,50,30.04,29.92,9,0,9,0.00
2013-2-12,41,27,16,15,7,-6,86,50,14,30.03,29.97,11,0,11,0.00
2013-2-13,46,32,22,14,11,8,62,43,24,30.02,29.90,27,1,28,0.00
2013-2-14,36,30,24,25,21,17,89,68,48,30.29,30.06,23,2,24,0.01
2013-2-15,39,28,17,22,17,12,86,67,34,30.30,30.21,21,1,21,0.00
2013-2-16,54,38,22,20,14,8,81,44,17,30.21,29.97,20,1,23,0.00
2013-2-17,60,41,27,20,4,-39,61,30,1,29.97,29.53,26,2,26,0.00
2013-2-18,41,33,24,23,12,-2,78,45,17,30.08,29.77,32,1,34,0.01
2013-2-19,41,24,18,15,9,6,66,54,30,30.07,29.76,11,0,12,0.01
2013-2-20,36,28,21,30,20,13,92,75,48,29.77,29.59,12,1,13,0.00
2013-2-21,31,22,17,23,18,14,92,85,69,29.87,29.66,11,0,12,6.16
2013-2-22,37,26,15,22,18,11,87,73,48,29.92,29.80,12,0,12,0.02
2013-2-23,48,32,18,28,19,11,92,63,30,29.84,29.55,16,2,17,0.00
2013-2-24,29,27,19,27,25,17,92,92,92,30.10,29.68,22,2,23,0.01
2013-2-25,42,25,10,24,15,8,92,68,31,30.08,29.80,11,0,12,0.00
2013-2-26,37,26,20,30,22,12,92,83,71,30.12,29.75,15,2,18,0.00
2013-2-27,38,28,18,21,16,11,86,61,34,30.23,30.12,16,0,16,0.00
2013-2-28,43,30,15,18,12,7,74,50,26,30.25,30.14,17,1,17,0.01
2013-3-1,49,37,25,26,21,15,78,53,29,30.33,30.22,11,0,11,0.04
2013-3-2,59,43,29,29,25,20,80,53,22,30.31,30.05,13,0,15,0.02
2013-3-3,62,49,37,30,24,15,72,41,17,30.05,29.65,18,1,19,0.00
2013-3-4,44,31,19,29,24,15,92,76,44,30.23,29.68,12,1,13,0.02
2013-3-5,41,27,13,24,18,9,85,70,46,30.25,30.13,10,0,11,4.90
2013-3-6,58,37,20,34,23,11,92,65,16,30.13,29.83,15,0,15,17.96
2013-3-7,64,45,29,28,25,15,85,53,15,29.98,29.84,19,1,21,17.96
2013-3-8,48,39,32,36,32,27,88,75,55,29.98,29.67,10,0,10,0.00
2013-3-9,72,30,5,64,24,-58,92,79,1,30.08,0.00,21,2,22,88.51
2013-3-10,141,35,24,27,24,-30,85,64,18,30.23,0.00,16,0,16,0.00
2013-3-11,52,38,29,33,25,19,92,66,28,30.17,29.90,26,2,30,0.00
2013-3-12,44,34,27,32,29,25,92,83,58,30.32,30.15,10,0,10,0.02
2013-3-13,74,38,-1,54,26,-33,91,69,2,30.96,26.15,16,1,16,0.92
2013-3-14,94,56,0,80,20,-42,92,33,1,30.56,26.87,14,1,17,11.58
2013-3-21,72,41,6,41,13,-16,34,31,18,29.81,29.48,16,3,18,114.03
2013-3-22,51,36,29,30,22,-20,92,60,26,33.67,29.48,30,2,31,0.00
2013-3-23,29,21,16,27,19,13,92,89,83,30.18,29.88,22,2,22,0.02
2013-3-24,32,21,8,20,14,5,89,76,53,30.20,30.06,11,0,12,0.01
2013-3-25,42,27,16,18,14,8,89,61,28,30.25,30.17,9,0,10,0.01
2013-3-26,57,35,19,32,22,14,85,63,23,30.18,29.90,12,1,12,0.96
2013-3-27,57,42,29,37,31,26,90,70,37,30.12,29.99,13,1,32,0.64
2013-3-28,66,44,32,40,33,26,92,71,24,30.14,30.05,12,0,12,10.88
2013-3-31,49,49,49,24,24,24,37,36,36,30.15,30.14,8,1,8,0.02
2013-4-1,56,44,36,36,31,24,85,62,38,30.18,29.99,22,2,22,0.01
2013-4-2,42,39,37,37,36,34,92,88,78,30.15,30.07,9,0,9,0.00
2013-4-3,62,47,37,43,33,21,92,66,22,30.17,30.07,13,0,13,0.00
2013-4-4,70,53,36,34,28,18,82,44,15,30.20,30.03,11,1,12,0.01
2013-4-5,73,59,47,33,24,12,47,29,10,30.03,29.71,28,1,31,0.00
2013-4-6,69,55,43,32,23,15,47,30,13,29.98,29.87,13,1,15,0.00
2013-4-7,66,54,42,38,28,18,80,40,17,29.89,29.71,21,2,24,0.00
2013-4-8,67,47,27,37,29,19,92,55,17,29.85,29.38,29,3,30,0.00
2013-4-9,27,19,12,25,15,9,92,87,77,30.20,29.84,23,4,23,0.00
2013-4-10,32,22,11,19,14,8,89,73,53,30.16,29.85,7,1,13,0.00
2013-4-11,56,39,23,38,27,19,88,67,34,29.90,29.70,19,1,22,0.00
2013-4-14,74,46,-1,66,13,-46,84,29,2,34.15,0.00,24,2,32,13.54
2013-4-15,140,38,4,28,12,-57,64,36,1,34.15,0.00,15,2,19,5.68
2013-4-18,129,36,9,100,15,-42,68,43,3,30.16,29.48,15,0,16,13.20
2013-4-19,142,30,1,58,14,-58,68,56,15,34.16,0.00,16,1,16,0.00
2013-4-26,73,60,10,61,18,-16,66,20,11,30.27,30.19,14,1,14,13.53
2013-4-27,142,57,-1,36,18,-53,66,29,4,30.99,30.07,15,1,16,0.00
2013-4-28,79,64,44,29,20,3,46,23,6,30.10,29.87,18,1,19,0.00
2013-4-29,100,69,-1,93,21,-52,81,21,1,30.11,29.48,16,2,17,13.38
2013-4-30,140,57,3,52,19,-27,69,23,4,30.07,0.81,16,0,16,0.00
2013-5-1,27,27,26,25,25,24,92,92,92,30.64,30.63,0,0,0,0.00
2013-5-2,49,37,25,29,24,18,92,63,31,30.71,30.44,11,0,11,0.00
2013-5-3,95,47,30,31,24,12,85,46,20,30.44,30.11,64,1,64,0.00
2013-5-4,62,49,36,34,29,23,80,48,26,30.26,30.12,14,1,15,0.00
2013-5-5,58,49,38,36,27,23,72,45,27,30.26,30.10,11,0,12,0.00
2013-5-6,67,54,42,39,32,27,65,46,27,30.14,29.95,9,0,10,0.00
2013-5-7,82,58,47,49,39,-8,89,55,20,30.07,24.71,64,1,64,0.28
2013-5-8,61,50,45,51,45,42,92,86,52,30.14,24.73,21,1,21,0.31
2013-5-9,57,49,44,50,45,41,92,85,66,30.25,30.12,17,1,18,0.56
2013-5-10,67,51,39,46,39,32,92,68,27,30.36,30.22,17,1,17,23.00
2013-5-11,71,58,45,45,39,30,84,53,23,30.47,30.28,19,1,20,27.60
2013-5-12,80,65,49,42,34,23,76,38,13,30.29,30.17,13,0,13,27.60
2013-5-13,86,70,54,41,34,23,57,30,11,30.24,30.10,13,1,14,23.00
2013-5-14,87,69,12,53,36,-10,60,32,8,30.10,29.48,13,1,15,122.44
2013-5-15,142,65,0,57,40,-45,83,44,5,30.23,29.48,16,1,23,0.16
2013-5-16,83,68,52,53,42,24,85,47,12,30.00,29.82,15,1,16,3.84
2013-5-17,89,72,54,47,28,-16,69,29,2,29.95,29.76,15,1,16,3.84
2013-5-18,80,66,55,39,31,17,49,29,10,29.96,29.76,16,0,16,3.84
2013-5-19,72,61,53,41,33,18,63,38,14,29.90,29.77,18,1,21,3.84
2013-5-20,67,55,50,51,44,37,89,67,36,30.07,29.87,15,1,17,3.84
2013-5-21,73,58,44,44,36,26,90,50,19,30.09,29.90,15,1,17,3.84
2013-5-22,98,65,-1,65,36,-52,92,42,2,30.19,29.48,16,1,16,122.61
2013-5-23,142,54,3,58,38,-53,82,66,6,30.16,29.48,14,1,14,0.00
2013-5-28,73,68,0,60,35,-16,67,31,7,29.82,29.59,24,0,84,3.54
2013-5-29,137,59,-1,55,36,-50,89,45,7,30.23,3.99,89,2,115,13.47
2013-5-30,137,55,0,100,28,-25,64,38,36,30.16,29.48,15,1,16,0.00
2013-5-31,60,60,60,16,16,16,18,18,18,30.07,30.07,0,0,0,0.00
2013-6-1,76,52,8,60,35,-40,84,55,2,30.87,29.48,15,0,17,4.50
2013-6-5,72,57,13,65,49,-5,92,76,8,30.22,29.48,10,0,14,123.70
2013-6-6,142,49,4,91,37,-40,92,74,7,30.22,0.00,15,1,15,0.00
2013-6-7,135,73,-1,97,37,-37,71,30,8,29.99,29.48,16,0,17,13.75
2013-6-8,142,68,1,53,31,-53,67,30,1,30.18,29.48,15,1,16,5.73
2013-6-9,96,73,52,49,36,-3,81,35,6,30.12,29.48,13,0,13,0.00
2013-6-10,98,80,63,42,28,5,37,19,4,30.02,29.91,16,1,20,0.00
2013-6-11,100,82,62,43,20,-25,50,17,1,30.05,29.84,20,2,22,0.00
2013-6-12,94,78,60,44,26,8,39,18,4,30.23,30.04,21,1,25,0.00
2013-6-13,83,69,60,58,54,45,85,63,35,30.20,30.02,16,2,17,0.00
2013-6-14,73,73,73,40,40,40,31,31,31,30.02,30.02,0,0,0,0.00
2013-6-16,85,71,15,55,39,-34,66,33,9,30.19,29.48,16,0,16,13.77
2013-6-17,140,58,3,61,39,-34,91,54,3,36.54,29.48,16,0,16,8.02
2013-6-18,121,78,-1,87,39,-47,86,28,1,30.23,29.48,21,2,22,11.11
2013-6-19,74,72,71,50,48,44,44,42,38,29.83,29.80,0,0,0,1.91
2013-6-20,93,76,57,54,30,0,68,26,3,30.01,29.82,12,1,13,0.00
2013-6-21,95,77,61,52,32,-21,64,29,1,30.00,29.84,16,0,16,0.00
2013-6-22,87,73,60,52,45,38,71,39,19,30.04,29.83,23,1,26,0.01
2013-6-23,87,69,57,60,48,31,85,53,14,30.12,29.85,27,1,27,0.11
2013-6-24,90,73,59,53,41,12,68,40,6,30.00,29.81,21,1,29,0.00
2013-6-25,94,76,60,43,33,16,47,25,6,30.10,29.87,12,0,12,0.00
2013-6-26,98,80,62,44,32,7,49,23,4,30.18,30.10,13,0,13,0.00
2013-6-27,98,82,64,50,34,12,57,24,4,30.34,30.17,12,0,13,0.00
2013-6-28,90,77,67,52,46,40,57,35,21,30.35,30.28,13,0,13,0.00
2013-6-29,72,72,72,50,50,50,45,45,45,30.33,30.33,0,0,0,0.00
2013-7-3,90,73,57,55,46,31,84,44,13,30.19,29.97,14,0,16,0.00
2013-7-4,91,76,61,54,44,28,67,38,11,30.09,29.99,18,0,22,0.00
2013-7-5,91,75,64,58,50,40,74,45,18,30.01,29.91,18,1,23,0.00
2013-7-6,70,69,68,55,53,51,61,58,52,29.99,29.93,8,0,8,0.00
2013-7-7,69,69,69,52,52,52,56,56,56,30.07,30.07,0,0,0,0.00
2013-7-8,100,82,2,85,40,-34,81,27,7,30.22,29.48,16,1,19,9.37
2013-7-9,96,80,64,55,42,20,61,32,8,30.28,30.20,15,0,17,0.00
2013-7-10,92,77,64,58,53,46,80,45,22,30.31,30.12,17,1,18,0.00
2013-7-11,100,81,64,65,50,23,78,42,8,30.19,29.95,21,1,21,0.12
2013-7-12,94,77,67,66,56,42,88,53,17,30.17,30.02,14,1,17,0.00
2013-7-13,91,73,65,66,61,46,92,72,23,30.27,30.10,15,1,16,1.25
2013-7-14,82,70,60,65,60,55,92,74,41,30.33,30.18,16,1,17,0.00
2013-7-15,81,71,64,68,61,47,92,74,42,30.29,30.19,15,1,16,0.28
2013-7-16,86,72,58,56,50,45,81,50,25,30.30,30.20,19,2,19,0.00
2013-7-17,67,67,67,57,57,57,70,70,70,30.30,30.30,8,8,10,0.00
2013-7-18,96,74,4,68,46,-38,69,39,1,30.83,0.00,22,4,22,127.43
2013-7-19,139,67,-1,60,51,-41,73,58,4,30.98,30.24,16,0,16,2.26
2013-7-20,93,75,62,60,54,36,86,54,14,30.18,29.98,21,1,24,0.00
2013-7-21,92,76,62,59,54,41,81,50,18,30.08,29.97,12,0,13,0.00
2013-7-22,95,79,62,59,45,24,73,36,9,30.09,29.98,9,0,10,0.00
2013-7-23,91,78,63,57,45,30,60,34,12,30.23,30.04,13,0,14,0.00
2013-7-24,85,74,66,62,56,47,80,55,29,30.25,30.13,25,1,26,0.00
2013-7-25,81,67,61,64,57,47,85,73,32,30.36,30.14,37,1,37,0.02
2013-7-26,88,72,59,58,50,32,86,53,15,30.38,30.21,11,0,12,0.00
2013-7-27,82,69,58,64,55,51,92,64,36,30.27,30.11,10,1,12,0.00
2013-7-28,76,65,61,64,61,58,92,86,60,30.18,30.01,9,0,10,0.00
2013-7-29,75,65,58,65,59,53,92,83,53,30.27,30.02,10,0,11,0.00
2013-7-30,89,72,58,58,51,39,91,55,18,30.33,30.23,12,0,12,0.00
2013-7-31,94,75,62,59,50,29,81,48,11,30.41,30.21,17,0,19,0.00
2013-8-1,91,75,64,60,52,26,83,51,10,30.32,30.05,11,0,15,0.00
2013-8-2,93,82,72,57,45,33,60,29,13,30.15,30.04,17,1,19,0.00
2013-8-3,91,73,62,61,54,41,90,57,19,30.38,30.13,19,1,19,0.06
2013-8-4,89,71,58,61,54,36,91,62,16,30.31,30.17,8,0,8,0.00
2013-8-5,87,73,61,60,52,43,81,51,24,30.20,30.11,16,1,18,0.00
2013-8-6,89,73,61,59,47,27,81,45,12,30.17,30.06,22,1,23,0.00
2013-8-7,76,68,63,60,55,47,84,62,44,30.22,30.09,16,0,16,0.00
2013-8-8,79,65,59,61,57,51,92,77,41,30.27,30.11,19,1,22,0.51
2013-8-9,81,65,54,60,52,41,90,67,24,30.29,30.22,13,0,16,0.02
2013-8-10,88,68,53,58,49,31,90,58,14,30.31,30.15,28,1,29,0.07
2013-8-11,84,70,60,57,51,42,83,54,24,30.30,30.21,9,0,11,0.14
2013-8-12,82,68,57,60,54,48,92,65,34,30.37,30.21,15,1,16,0.00
2013-8-13,82,67,56,60,53,43,92,65,28,30.35,30.23,16,1,18,0.00
2013-8-14,63,63,63,52,52,52,66,66,66,30.28,30.28,0,0,0,0.00
2013-8-19,128,84,-1,94,32,-41,88,18,6,30.18,29.48,16,1,16,13.06
2013-8-20,142,70,-1,44,34,-37,68,29,15,30.21,29.48,16,1,16,3.92
2013-8-21,68,68,68,56,56,56,65,65,65,30.22,30.22,0,0,0,0.00
2013-8-22,85,71,64,64,59,52,85,67,36,30.33,24.94,19,1,19,0.09
2013-8-23,90,72,63,60,54,45,84,57,23,30.30,30.04,16,0,18,2.16
2013-8-24,92,72,59,62,54,39,83,58,23,30.20,30.09,18,0,21,0.03
2013-8-25,90,74,61,60,54,41,87,54,18,30.24,30.15,13,0,14,2.88
2013-8-26,92,76,62,61,54,46,89,53,21,30.25,30.16,16,1,16,2.28
2013-8-27,98,77,64,59,54,0,80,50,19,30.25,24.94,16,0,129,0.00
2013-8-29,92,81,76,51,45,33,42,30,13,30.28,30.21,19,1,19,0.00
2013-8-30,89,74,67,65,56,0,80,55,24,30.33,24.21,64,0,127,0.08
2013-8-31,78,70,62,62,55,48,83,61,37,30.20,30.14,7,0,7,0.88
2013-9-1,81,71,64,60,56,11,78,60,42,30.32,29.48,11,0,11,0.00
2013-9-2,90,74,59,59,53,45,88,54,23,30.23,30.10,10,0,10,0.00
2013-9-3,95,78,18,60,51,10,75,44,15,30.22,30.13,6,0,8,0.01
2013-9-8,132,82,24,100,42,-27,82,27,7,30.19,29.48,16,1,16,12.66
2013-9-9,141,66,1,100,45,-8,67,54,43,30.22,29.48,16,0,16,0.00
2013-9-10,62,62,61,60,60,59,92,92,92,30.30,30.27,5,0,6,0.00
2013-9-11,69,63,61,64,61,59,92,91,81,30.30,30.20,10,0,10,0.00
2013-9-12,65,61,59,62,59,57,92,92,92,30.36,30.27,16,0,17,0.00
2013-9-13,78,65,58,66,60,56,92,84,56,30.27,29.97,15,0,17,0.00
2013-9-14,98,63,24,72,56,-14,92,83,1,30.21,29.48,15,0,16,12.71
2013-9-15,140,59,7,72,50,-6,92,80,53,30.21,0.00,15,0,15,10.00
2013-9-21,83,74,61,46,38,30,57,30,15,29.94,29.87,11,0,12,0.00
2013-9-22,74,59,53,51,48,46,80,67,39,29.88,29.78,12,0,12,0.00
2013-9-23,58,58,58,55,55,55,92,92,92,29.68,29.68,0,0,0,0.00
2013-9-25,70,66,63,33,30,27,33,26,20,29.61,29.57,8,0,8,11.93
2013-9-26,76,59,48,49,44,-10,85,60,33,29.85,24.53,80,0,127,16.22
2013-9-27,52,51,50,48,47,47,90,89,85,29.79,29.78,0,0,0,0.00
2013-9-28,46,46,46,41,41,41,84,84,84,30.18,30.17,0,0,0,0.13
2013-9-29,75,56,41,48,37,22,85,55,14,30.17,29.95,8,0,8,0.00
2013-9-30,80,64,52,50,41,30,77,49,16,29.99,29.84,9,0,10,0.00
2013-10-1,56,53,50,48,46,44,82,76,65,30.02,29.97,6,0,6,0.00
2013-10-2,76,67,-1,64,36,-47,92,36,8,30.19,24.19,81,1,136,21.12
2013-10-3,127,54,6,100,43,-39,92,71,1,30.13,28.53,15,2,15,21.12
2013-10-4,50,39,32,47,35,27,92,86,61,30.23,29.79,19,2,19,2.47
2013-10-5,58,42,29,33,24,12,92,59,16,30.24,29.53,20,1,64,8.23
2013-10-6,73,54,24,63,37,4,77,55,25,30.30,30.24,9,0,13,6.19
2013-10-7,90,42,-1,65,31,-44,91,68,1,30.84,29.48,15,0,16,9.15
2013-10-10,50,48,46,45,45,44,92,88,80,29.61,29.56,0,0,0,3.86
2013-10-11,73,50,24,44,36,6,92,61,33,30.09,29.48,15,1,16,0.02
2013-10-12,59,48,40,45,42,19,92,80,49,30.23,29.06,13,1,14,1.95
2013-10-13,60,48,37,48,42,35,92,79,56,30.19,29.91,10,0,11,0.08
2013-10-14,54,47,42,48,42,36,92,83,62,30.13,29.84,24,1,25,0.05
2013-10-15,139,41,24,71,30,-11,92,65,19,30.74,24.27,16,0,128,11.28
2013-10-16,76,32,24,48,27,-10,92,83,21,30.18,29.48,14,0,16,10.00
2013-10-17,89,41,34,34,32,-40,87,71,53,30.16,24.68,12,0,127,6.15
2013-10-18,44,38,32,36,32,30,92,81,61,30.22,30.05,13,1,15,0.00
2013-10-19,62,44,0,31,25,-31,90,55,18,30.15,24.23,64,1,127,4.95
2013-10-20,48,41,35,38,35,30,92,79,63,30.17,29.91,14,0,14,0.00
2013-10-21,55,41,30,38,31,27,92,72,35,30.23,30.12,10,0,11,0.00
2013-10-22,61,46,0,38,32,-36,89,63,16,30.27,24.20,32,0,127,4.04
2013-10-23,144,48,-1,100,34,-11,84,62,30,30.26,24.91,16,0,127,4.48
2013-10-24,45,38,33,40,35,-8,92,89,82,30.33,24.22,9,0,9,2.07
2013-10-25,44,36,34,39,34,31,92,92,84,30.28,30.23,0,0,0,0.00
2013-10-26,75,52,42,60,38,31,80,60,41,30.41,30.18,7,0,16,8.12
2013-10-27,93,45,24,88,29,-27,91,62,8,30.18,29.48,14,0,15,9.51
2013-10-28,137,37,0,72,34,-16,92,91,15,30.17,0.00,64,0,129,279.25
2013-10-29,98,34,0,32,23,-9,92,70,28,30.06,4.10,14,1,15,0.00
2013-10-30,89,43,-1,66,36,-41,92,77,4,30.23,24.55,16,1,127,12.80
2013-10-31,52,41,29,32,25,-19,92,58,27,29.93,24.55,24,2,64,4.00
2013-11-1,127,42,14,37,27,-26,92,57,14,30.25,24.19,32,0,127,6.39
2013-11-2,60,42,27,34,26,20,88,59,25,30.24,24.92,9,0,127,0.79
2013-11-3,82,49,37,47,22,-17,73,40,13,29.89,24.20,19,1,133,4.10
2013-11-4,142,37,0,83,27,-56,86,69,17,30.02,24.19,97,2,134,7.14
2013-11-5,139,36,6,51,10,-24,68,35,15,30.22,21.09,14,0,16,71.42
2013-11-6,45,26,18,30,11,-28,66,52,1,30.16,29.48,3,0,14,71.42
2013-11-7,135,35,0,30,20,-48,92,56,23,34.80,24.19,16,0,127,26.32
2013-11-8,62,45,32,28,24,14,76,47,15,30.05,29.84,11,0,12,0.00
2013-11-9,75,44,16,41,28,-28,92,57,20,30.30,24.23,16,0,127,5.20
2013-11-10,63,44,31,32,26,14,88,55,15,30.29,30.18,9,0,9,0.00
2013-11-11,79,41,0,65,25,-43,92,59,2,30.95,0.00,17,2,82,13.70
2013-11-12,110,49,1,87,28,-8,90,46,18,30.95,30.24,15,0,16,21.23
2013-11-13,130,48,22,100,16,-14,79,30,8,128.85,29.48,16,0,16,26.74
2013-11-14,141,43,-1,100,21,-52,66,41,8,30.23,29.48,16,0,16,8.80
2013-11-15,73,52,16,70,18,-27,92,28,9,30.23,1.37,16,0,16,18.01
2013-11-16,142,38,0,34,21,-14,60,51,24,30.17,28.54,14,0,14,0.60
2013-11-17,53,42,33,29,20,14,73,43,21,30.09,29.56,22,1,22,0.00
2013-11-18,60,42,28,22,16,2,74,42,10,30.17,30.03,9,0,10,0.00
2013-11-19,128,47,20,82,21,-15,92,37,10,30.20,29.48,15,1,16,19.02
2013-11-20,127,46,12,100,24,-24,65,45,5,29.89,24.58,32,0,143,2.82
2013-11-21,132,20,-1,100,15,-51,92,81,3,30.95,2.22,15,2,16,21.65
2013-11-22,74,27,19,65,19,-23,80,74,13,30.88,30.24,15,0,15,1.73
2013-11-23,74,29,4,19,11,-58,70,49,1,30.95,0.00,15,0,15,0.01
2013-11-25,80,35,2,66,25,-26,89,70,25,30.99,30.14,13,0,16,7.96
2013-11-26,46,35,27,30,24,20,90,68,36,30.42,30.26,10,0,10,0.00
2013-11-27,59,34,28,25,22,-52,78,66,17,30.26,30.04,12,0,127,0.30
2013-11-28,46,34,28,28,26,24,85,72,46,30.20,30.15,9,0,9,0.00
2013-11-29,52,32,27,28,25,21,87,78,31,30.16,30.10,7,0,7,0.00
2013-11-30,125,41,0,92,18,-15,90,44,17,30.21,3.63,16,0,16,12.86
2013-12-1,54,50,44,24,20,17,39,31,24,30.07,29.88,30,1,34,0.00
2013-12-2,58,50,38,24,20,17,56,32,21,29.90,29.58,26,2,27,0.00
2013-12-3,130,34,2,69,18,-48,88,55,3,30.21,29.45,16,3,127,18.80
2013-12-4,138,11,1,100,6,-55,90,80,4,30.02,29.48,15,1,58,13.50
2013-12-5,125,6,-2,100,0,-26,92,76,26,30.18,29.48,14,0,16,12.90
2013-12-6,92,6,0,70,0,-57,92,77,1,30.22,29.48,16,0,16,13.70
2013-12-7,109,7,-4,70,0,-59,91,76,1,30.22,29.48,16,1,16,19.01
2013-12-8,88,14,-1,82,8,-57,91,75,1,30.23,29.48,16,0,16,7.52
2013-12-9,90,16,4,10,4,-1,85,63,31,30.10,29.66,14,0,16,0.00
2013-12-10,45,28,11,18,11,0,71,51,27,30.25,29.89,21,1,23,0.00
2013-12-11,134,24,3,94,16,-53,91,72,2,30.95,29.86,16,0,16,13.64
2013-12-12,90,32,0,69,17,-47,91,59,4,30.86,29.48,14,0,16,15.15
2013-12-13,110,31,4,67,17,-37,91,60,5,30.19,29.48,18,1,21,6.67
2013-12-14,74,31,1,22,18,-8,85,62,35,30.30,29.48,14,0,15,22.08
2013-12-15,130,39,-1,93,16,-27,92,47,18,30.23,29.48,16,1,16,20.18
2013-12-16,103,50,3,67,14,-40,90,28,1,30.28,29.48,14,2,23,10.37
2013-12-17,133,42,-1,69,17,-27,90,40,14,30.36,29.48,16,0,16,20.10
2013-12-18,100,52,-1,76,13,-40,90,24,1,30.23,2.25,15,1,16,0.63
2013-12-19,52,36,19,25,19,0,90,55,44,29.87,2.25,16,3,18,0.00
2013-12-20,26,23,19,23,20,16,92,89,85,29.87,29.61,7,0,7,0.00
2013-12-21,30,24,16,26,20,13,92,88,80,29.89,29.51,10,0,11,0.00
2013-12-22,39,29,19,26,18,12,92,69,33,30.23,29.88,20,2,21,0.00
2013-12-23,44,30,20,27,22,17,91,76,41,30.28,30.10,10,0,11,0.00
2013-12-24,53,37,25,27,22,16,77,56,28,30.30,29.99,25,2,30,0.00
2013-12-25,25,23,22,16,15,14,72,71,68,30.31,30.27,4,0,4,0.00
2013-12-26,129,34,24,50,13,-46,69,44,8,30.97,29.48,15,0,16,461.72
2013-12-27,127,45,0,70,19,-19,88,37,18,30.51,29.48,15,0,16,20.13
2013-12-28,57,36,23,29,22,18,92,60,24,30.25,29.85,21,2,21,0.00
2013-12-29,35,26,17,22,17,13,89,72,43,30.25,30.00,10,0,10,0.00
2013-12-30,46,39,30,19,15,11,62,41,24,30.22,30.12,12,1,13,0.00
2013-12-31,72,30,29,58,19,10,64,62,43,30.12,30.02,6,0,12,0.00
2014-1-1,37,32,23,33,27,20,92,82,61,30.33,29.89,12,1,16,0.00
2014-1-2,45,30,19,27,21,16,89,74,32,30.27,30.01,8,0,9,0.00